Weather History for Aurora, OR

Change the Weather History Date:

Monday, April 1, 2013

  Actual Average Record
Temperature  
Mean Temperature 57 °F -  
Max Temperature 65 °F - 65 °F (2011)
Min Temperature 49 °F - 30 °F (1999)
Degree Days  
Heating Degree Days 8    
Month to date heating degree days 8  
Since 1 July heating degree days 3662  
Cooling Degree Days 0    
Month to date cooling degree days 0  
Year to date cooling degree days 0  
Growing Degree Days 7 (Base 50)    
Moisture  
Dew Point 49 °F    
Average Humidity 76    
Maximum Humidity 89    
Minimum Humidity 63    
Precipitation  
Precipitation 0.00 in - 0.27 in (1955)
Month to date precipitation 0.00  
Year to date precipitation 6.01  
Sea Level Pressure  
Sea Level Pressure 30.12 in    
Wind  
Wind Speed 6 mph (SSW)    
Max Wind Speed 13 mph    
Max Gust Speed 17 mph    
Visibility 10 miles    
Events      
T = Trace of Precipitation, MM = Missing Value Source: NWS Daily Summary

Daily Weather History Graph

Daily Weather History Graph

Search for Another Location

Airport:

Trip Planner

Search our weather history database for the weather conditions in past years. The results will help you decide how hot, cold, wet, or windy it might be!

Date:

Astronomy

Apr. 01, 2013 Rise Set
Actual Time 6:50 AM PDT 7:39 PM PDT
Civil Twilight 6:21 AM PDT 8:09 PM PDT
Nautical Twilight 5:45 AM PDT 8:45 PM PDT
Astronomical Twilight 5:08 AM PDT 9:22 PM PDT
Moon 1:05 AM PDT (4/1) 10:31 AM PDT (4/1)
Length of Visible Light 13h 48m
Length of Day
12h 48m
Waning Gibbous, 66% of the Moon is Illuminated
Apr 1
Waning Gibbous
Apr 2
Last Quarter
Apr 10
New
Apr 18
First Quarter
Apr 25
Full

Hourly Weather History & Observations

Time (PDT) Temp. Dew Point Humidity Pressure Visibility Wind Dir Wind Speed Gust Speed Precip Events Conditions
12:53 AM 55.9 °F 48.9 °F 77% 30.03 in 10.0 mi South 6.9 mph - N/A   Overcast
1:53 AM 54.0 °F 48.9 °F 83% 30.03 in 10.0 mi SW 4.6 mph - N/A   Overcast
4:53 AM 50.0 °F 46.9 °F 89% 30.04 in 10.0 mi South 3.5 mph - N/A   Mostly Cloudy
5:53 AM 52.0 °F 48.9 °F 89% 30.05 in 10.0 mi SSW 4.6 mph - N/A   Overcast
6:53 AM 50.0 °F 46.9 °F 89% 30.07 in 10.0 mi Calm Calm - N/A   Mostly Cloudy
7:29 AM 50.0 °F 48.2 °F 94% 30.08 in 10.0 mi Calm Calm - N/A   Mostly Cloudy
7:53 AM 51.1 °F 48.0 °F 89% 30.08 in 10.0 mi Calm Calm - N/A   Overcast
8:53 AM 54.0 °F 48.0 °F 80% 30.10 in 10.0 mi SSW 4.6 mph - N/A   Scattered Clouds
9:53 AM 55.9 °F 48.0 °F 75% 30.11 in 10.0 mi Variable 6.9 mph - N/A   Partly Cloudy
10:05 AM 55.4 °F 48.2 °F 77% 30.11 in 10.0 mi WSW 5.8 mph - N/A   Mostly Cloudy
10:53 AM 59.0 °F 48.9 °F 69% 30.12 in 10.0 mi Calm Calm - N/A   Overcast
11:53 AM 57.9 °F 48.0 °F 70% 30.13 in 10.0 mi Variable 6.9 mph - N/A   Overcast
12:49 PM 60.8 °F 48.2 °F 63% 30.13 in 10.0 mi SSW 6.9 mph - N/A   Overcast
12:53 PM 60.1 °F 48.9 °F 67% 30.13 in 10.0 mi SSW 6.9 mph - N/A   Overcast
1:53 PM 60.1 °F 48.0 °F 64% 30.13 in 10.0 mi SSW 6.9 mph - N/A   Overcast
2:53 PM 63.0 °F 50.0 °F 63% 30.12 in 10.0 mi SSE 5.8 mph - N/A   Overcast
3:53 PM 64.0 °F 51.1 °F 63% 30.12 in 10.0 mi South 10.4 mph - N/A   Mostly Cloudy
4:53 PM 62.1 °F 51.1 °F 67% 30.12 in 10.0 mi SSW 5.8 mph - N/A   Overcast
5:53 PM 61.0 °F 51.1 °F 70% 30.13 in 10.0 mi SSW 11.5 mph - N/A   Overcast
6:53 PM 60.1 °F 50.0 °F 69% 30.14 in 10.0 mi SSW 6.9 mph - N/A   Overcast
7:53 PM 57.9 °F 48.9 °F 72% 30.15 in 10.0 mi SW 9.2 mph - N/A   Overcast
8:53 PM 55.9 °F 48.0 °F 75% 30.16 in 10.0 mi SW 8.1 mph - N/A   Overcast
9:53 PM 55.0 °F 48.0 °F 77% 30.17 in 10.0 mi SW 5.8 mph - N/A   Overcast
10:53 PM 54.0 °F 48.0 °F 80% 30.18 in 10.0 mi SSW 8.1 mph - N/A   Overcast
11:44 PM 53.6 °F 46.4 °F 77% 30.18 in 10.0 mi SSW 8.1 mph - N/A   Overcast
11:53 PM 53.1 °F 46.9 °F 80% 30.19 in 10.0 mi South 9.2 mph - N/A   Overcast